Location: Allerheiligen
(47.7333°N, 9.4000°E)
Time: 05:42:00
(UTC+00:00)

NOSS 3-2 (C) - Pass Details

Date: 11 December 2025
Orbit: 672 x 1536 km, 63.4° (Epoch: 2 January)

Event Time Altitude Azimuth Distance (km) Brightness Sun altitude
Rises 17:32:16 0° 241° (WSW) 3,127 7.6 -19.5°
Reaches altitude 10° 17:34:33 10° 248° (WSW) 2,277 6.6 -19.9°
Maximum altitude 17:39:32 47° 322° (NW) 1,118 4.0 -20.7°
Enters shadow 17:43:09 22° 25° (NNE) 1,902 4.7 -21.3°
